This demonstration page uses our WeatherBlox Daily Observations layout. Learn more.

Left ArrowRight Arrow

Hourly Observations for January 5, 2016

Temp ( °F °C ) Dew Point ( °F °C ) Humidity (%) Winds ( mph kmh ) Pressure ( in mb ) Visibility ( mi km ) Precip ( " mm )
12:51 am 00:51 Cloudy 40 4.4 39 3.9 97 97 E 5 7 30.01 1016 10 16 N/A
1:51 am 01:51 Cloudy 40 4.4 39 3.9 97 97 SE 5 7 29.99 1016 10 16 N/A
2:51 am 02:51 Cloudy 42 5.6 38 3.3 85 85 SSE 7 11 29.99 1016 10 16 N/A
3:23 am 03:23 Cloudy 42 5.6 39 3.9 89 89 ESE 8 13 30.03 1017 10 16 N/A
3:51 am 03:51 Cloudy 42 5.6 39 3.9 89 89 SSE 9 15 29.98 1015 10 16 N/A
4:22 am 04:22 Cloudy 42 5.6 39 3.9 89 89 SE 7 11 30.03 1017 10 16 N/A
4:51 am 04:51 Cloudy 42 5.6 39 3.9 89 89 SE 7 11 29.98 1015 10 16 N/A
5:43 am 05:43 Cloudy 42 5.6 39 3.9 89 89 SE 6 9 30.03 1017 10 16 N/A
5:51 am 05:51 Cloudy 42 5.6 39 3.9 89 89 SSE 6 9 29.99 1016 10 16 N/A
6:51 am 06:51 Cloudy 42 5.6 39 3.9 89 89 SE 7 11 30.00 1016 10 16 N/A
7:42 am 07:42 Cloudy 43 6.1 39 3.9 86 86 SE 7 11 30.06 1018 10 16 N/A
7:51 am 07:51 Cloudy 43 6.1 39 3.9 86 86 ESE 7 11 30.01 1016 10 16 N/A
8:05 am 08:05 Cloudy 43 6.1 39 3.9 86 86 SE 7 11 30.06 1018 10 16 N/A
8:23 am 08:23 Cloudy with Mist and Fog 43 6.1 39 3.9 86 86 SE 6 9 30.09 1019 2 3 N/A
8:38 am 08:38 Cloudy 44 6.7 40 4.4 85 85 ESE 6 9 30.09 1019 10 16 N/A
8:51 am 08:51 Cloudy 44 6.7 40 4.4 85 85 ESE 5 7 30.03 1017 10 16 N/A
9:00 am 09:00 Cloudy with Haze 45 7.2 40 4.4 83 83 ESE 7 11 30.09 1019 1 1 N/A
9:03 am 09:03 Cloudy with Haze 45 7.2 40 4.4 83 83 ESE 7 11 30.09 1019 4 6 N/A
9:51 am 09:51 Cloudy 45 7.2 40 4.4 83 83 SE 6 9 30.05 1018 10 16 N/A
10:09 am 10:09 Cloudy 45 7.2 40 4.4 83 83 SE 6 9 30.09 1019 10 16 N/A
10:51 am 10:51 Cloudy 47 8.3 41 5 80 80 SSE 7 11 30.04 1017 10 16 N/A
10:56 am 10:56 Cloudy with Haze 46 7.8 41 5 83 83 S 7 11 30.06 1018 1 2 N/A
11:03 am 11:03 Cloudy with Haze 47 8.3 41 5 80 80 SSE 7 11 30.06 1018 1 1 N/A
11:06 am 11:06 Cloudy with Haze 47 8.3 41 5 80 80 SSE 8 13 30.06 1018 3 4 N/A
11:13 am 11:13 Cloudy with Haze 47 8.3 41 5 80 80 S 6 9 30.06 1018 2 2 N/A
11:23 am 11:23 Cloudy 47 8.3 41 5 80 80 SE 6 9 30.06 1018 10 16 N/A
11:51 am 11:51 Cloudy 47 8.3 41 5 80 80 ESE 7 11 30.02 1017 10 16 N/A
12:02 pm 12:02 Cloudy 48 8.9 41 5 77 77 SSE 6 9 30.03 1017 10 16 N/A
12:12 pm 12:12 Cloudy 49 9.4 41 5 74 74 SSE 6 9 30.03 1017 10 16 N/A
12:19 pm 12:19 Cloudy 48 8.9 41 5 77 77 SSE 6 9 30.03 1017 10 16 N/A
12:41 pm 12:41 Cloudy 49 9.4 41 5 74 74 E 5 7 30.00 1016 10 16 N/A
12:51 pm 12:51 Cloudy 49 9.4 41 5 74 74 ESE 5 7 29.97 1015 10 16 N/A
1:51 pm 13:51 Cloudy 50 10 41 5 71 71 SSE 5 7 29.94 1014 10 16 N/A
2:51 pm 14:51 Mostly Cloudy 51 10.6 41 5 69 69 SSE 7 11 29.92 1013 10 16 N/A
3:51 pm 15:51 Partly Cloudy 51 10.6 40 4.4 66 66 N N/A 29.91 1013 10 16 N/A
4:51 pm 16:51 Mostly Cloudy 51 10.6 42 5.6 71 71 S 5 7 29.91 1013 10 16 N/A
5:51 pm 17:51 Mostly Cloudy 49 9.4 42 5.6 77 77 S 3 6 29.92 1013 10 16 N/A
6:51 pm 18:51 Cloudy 48 8.9 43 6.1 83 83 SSE 5 7 29.93 1013 10 16 N/A
7:51 pm 19:51 Cloudy 49 9.4 43 6.1 80 80 S 5 7 29.93 1014 10 16 N/A
8:51 pm 20:51 Cloudy 48 8.9 43 6.1 83 83 E 5 7 29.94 1014 10 16 N/A
9:51 pm 21:51 Mostly Cloudy 48 8.9 43 6.1 83 83 ESE 7 11 29.92 1013 10 16 N/A
10:40 pm 22:40 Cloudy 47 8.3 43 6.1 86 86 E 6 9 29.97 1015 10 16 N/A
10:51 pm 22:51 Mostly Cloudy 47 8.3 43 6.1 86 86 ESE 7 11 29.91 1013 10 16 N/A
11:51 pm 23:51 Cloudy with Light Rain 48 8.9 43 6.1 83 83 ESE 7 11 29.89 1012 10 16 N/A

Powered by AerisWeather